TimeCST,TemperatureF,Dew PointF,Humidity,Sea Level PressureIn,VisibilityMPH,Wind Direction,Wind SpeedMPH,Gust SpeedMPH,PrecipitationIn,Events,Conditions,WindDirDegrees,DateUTC
12:03 AM,21.2,15.8,80,29.91,2.0,NNW,15.0,26.5,N/A,Snow,Light Snow,330,2012-12-10 06:03:00
12:26 AM,19.4,15.8,86,29.91,3.0,NW,17.3,24.2,0.00,Snow,Light Snow,320,2012-12-10 06:26:00
12:33 AM,19.4,15.8,86,29.92,3.0,NW,16.1,25.3,0.00,Snow,Light Snow,320,2012-12-10 06:33:00
12:53 AM,19.0,14.0,81,29.95,5.0,NW,21.9,-,0.00,Snow,Light Snow,320,2012-12-10 06:53:00
1:43 AM,17.6,12.2,79,29.93,2.5,NW,17.3,-,0.00,Snow,Light Snow,320,2012-12-10 07:43:00
1:53 AM,16.0,10.9,81,29.96,4.0,NW,13.8,-,0.00,Snow,Light Snow,320,2012-12-10 07:53:00
2:53 AM,17.1,12.0,81,29.97,5.0,NW,15.0,-,0.00,Snow,Light Snow,320,2012-12-10 08:53:00
3:53 AM,16.0,10.9,81,29.97,8.0,NW,11.5,-,0.00,,Overcast,310,2012-12-10 09:53:00
4:53 AM,12.9,9.0,84,29.96,10.0,NW,10.4,-,0.00,,Mostly Cloudy,320,2012-12-10 10:53:00
5:05 AM,12.2,8.6,85,29.94,10.0,NW,12.7,-,N/A,,Overcast,310,2012-12-10 11:05:00
5:22 AM,12.2,8.6,85,29.94,10.0,NW,9.2,-,N/A,,Overcast,320,2012-12-10 11:22:00
5:53 AM,12.0,7.0,80,29.98,10.0,WNW,12.7,-,N/A,,Mostly Cloudy,300,2012-12-10 11:53:00
6:53 AM,12.9,7.0,77,29.98,10.0,NW,11.5,-,N/A,,Overcast,310,2012-12-10 12:53:00
7:53 AM,12.9,7.0,77,29.98,9.0,NW,12.7,-,0.00,,Overcast,320,2012-12-10 13:53:00
8:48 AM,12.2,6.8,79,29.96,10.0,NW,10.4,-,N/A,,Overcast,310,2012-12-10 14:48:00
8:53 AM,12.9,7.0,77,29.99,10.0,NW,9.2,-,N/A,,Overcast,310,2012-12-10 14:53:00
9:53 AM,12.2,6.8,79,29.96,9.0,NNW,9.2,-,N/A,Snow,Light Snow,330,2012-12-10 15:53:00
10:03 AM,12.2,6.8,79,29.96,4.0,NW,8.1,-,0.00,Snow,Light Snow,320,2012-12-10 16:03:00
10:53 AM,14.0,8.1,77,30.00,9.0,WNW,6.9,-,0.00,,Overcast,300,2012-12-10 16:53:00
11:10 AM,14.0,8.6,79,29.96,10.0,WNW,6.9,-,N/A,,Overcast,290,2012-12-10 17:10:00
11:36 AM,12.2,8.6,85,29.96,3.0,NW,6.9,-,0.00,Snow,Light Snow,310,2012-12-10 17:36:00
11:53 AM,12.9,7.0,77,29.99,10.0,WNW,5.8,-,0.00,,Scattered Clouds,300,2012-12-10 17:53:00
12:53 PM,15.1,8.1,74,29.97,9.0,West,5.8,-,N/A,,Clear,270,2012-12-10 18:53:00
1:53 PM,16.0,9.0,74,29.95,10.0,West,5.8,-,N/A,,Clear,270,2012-12-10 19:53:00
2:53 PM,18.0,10.0,71,29.94,10.0,WNW,6.9,-,N/A,,Clear,290,2012-12-10 20:53:00
3:53 PM,15.1,7.0,70,29.95,10.0,SW,9.2,-,N/A,,Clear,230,2012-12-10 21:53:00
4:53 PM,10.9,3.9,73,29.97,10.0,West,5.8,-,N/A,,Clear,260,2012-12-10 22:53:00
5:53 PM,8.1,1.9,76,29.98,10.0,WSW,3.5,-,N/A,,Clear,240,2012-12-10 23:53:00
6:53 PM,6.1,1.0,80,29.97,10.0,South,3.5,-,N/A,,Clear,190,2012-12-11 00:53:00
7:53 PM,5.0,-0.0,80,29.97,10.0,South,3.5,-,N/A,,Clear,180,2012-12-11 01:53:00
8:53 PM,3.0,-0.9,84,29.96,10.0,SSE,5.8,-,N/A,,Clear,150,2012-12-11 02:53:00
9:53 PM,1.9,-2.0,83,29.96,10.0,SSE,6.9,-,N/A,,Clear,160,2012-12-11 03:53:00
10:53 PM,1.9,-0.9,88,29.94,9.0,SE,8.1,-,N/A,,Scattered Clouds,140,2012-12-11 04:53:00
11:18 PM,3.2,1.4,92,29.90,4.0,SE,5.8,-,N/A,,Mostly Cloudy,140,2012-12-11 05:18:00
11:53 PM,3.9,1.0,88,29.92,5.0,SE,5.8,-,N/A,,Mostly Cloudy,140,2012-12-11 05:53:00